Stations météo

réclame
Mon MeteoGroup
Threave, Grande-Bretagne (99090): Température de l'air & dewpoint: 01.07.2020 10:00:00 - 07.07.2020 10:00:00 (BST)Threave, Grande-Bretagne (99090): Température de l'air -20cm & Température de l'air -100cm: 01.07.2020 10:00:00 - 07.07.2020 10:00:00 (BST)Threave, Grande-Bretagne (99090): Quantités de précipitations: 01.07.2020 10:00:00 - 07.07.2020 10:00:00 (BST)
Date & Time tt [°C] td [°C] tt -20cm [°C] tt -100cm [°C] rr [mm]
07.07.2020 10:00:00 12,1 9,2 15,7 13,7 0,0
07.07.2020 09:00:00 11,6 9,7 - - 0,0
07.07.2020 08:00:00 11,0 9,5 - - 0,0
07.07.2020 07:00:00 10,8 9,2 - - 0,0
07.07.2020 06:00:00 10,2 8,8 - - 0,0
07.07.2020 05:00:00 10,1 8,6 - - 0,0
07.07.2020 04:00:00 10,3 9,0 - - 0,0
07.07.2020 03:00:00 10,5 8,9 - - 0,0
07.07.2020 02:00:00 10,6 8,4 - - 0,0
07.07.2020 01:00:00 10,7 8,6 - - 0,0
07.07.2020 00:00:00 11,0 8,4 - - 0,0
06.07.2020 23:00:00 11,2 8,0 - - 0,0
06.07.2020 22:00:00 11,1 7,5 - - 0,0
06.07.2020 21:00:00 12,8 7,8 - - 0,0
06.07.2020 20:00:00 14,0 7,5 - - 0,0
06.07.2020 19:00:00 15,1 8,1 - - 0,0
06.07.2020 18:00:00 15,7 8,8 - - 0,0
06.07.2020 17:00:00 15,6 8,4 - - 0,0
06.07.2020 16:00:00 15,5 7,5 - - 0,0
06.07.2020 15:00:00 16,3 8,2 - - 0,0
06.07.2020 14:00:00 15,8 8,6 - - 0,0
06.07.2020 13:00:00 14,1 7,4 - - 0,0
06.07.2020 12:00:00 14,0 8,3 - - 0,0
06.07.2020 11:00:00 14,8 9,3 - - 0,0
06.07.2020 10:00:00 14,0 8,3 15,7 13,7 0,0
06.07.2020 09:00:00 13,6 8,7 - - 0,0
06.07.2020 08:00:00 13,0 9,9 - - 0,0
06.07.2020 07:00:00 11,3 9,1 - - 0,0
06.07.2020 06:00:00 10,6 9,3 - - 0,0
06.07.2020 05:00:00 10,6 9,5 - - 0,0
06.07.2020 04:00:00 10,5 9,4 - - 0,2
06.07.2020 03:00:00 10,6 9,1 - - 0,0
06.07.2020 02:00:00 10,7 9,2 - - 0,2
06.07.2020 01:00:00 10,8 8,6 - - 0,0
06.07.2020 00:00:00 10,7 8,7 - - 0,0
05.07.2020 23:00:00 10,8 8,2 - - 0,0
05.07.2020 22:00:00 11,2 8,3 - - 0,0
05.07.2020 21:00:00 11,6 9,1 - - 0,0
05.07.2020 20:00:00 11,8 8,4 - - 0,0
05.07.2020 19:00:00 11,0 9,1 - - 0,6
05.07.2020 18:00:00 12,1 10,2 - - 1,0
05.07.2020 17:00:00 12,7 10,2 - - 0,4
05.07.2020 16:00:00 13,4 10,1 - - 0,0
05.07.2020 15:00:00 14,3 10,8 - - 0,0
05.07.2020 14:00:00 13,0 11,2 - - 1,0
05.07.2020 13:00:00 11,9 10,6 - - 2,0
05.07.2020 12:00:00 12,5 10,6 - - 1,2
05.07.2020 11:00:00 12,0 9,9 - - 0,2
05.07.2020 10:00:00 13,8 8,8 15,7 13,7 0,0
05.07.2020 09:00:00 13,1 9,3 - - 0,0
05.07.2020 08:00:00 12,1 8,8 - - 0,0
05.07.2020 07:00:00 11,9 8,6 - - 0,0
05.07.2020 06:00:00 11,7 8,7 - - 0,0
05.07.2020 05:00:00 12,8 10,4 - - 0,0
05.07.2020 04:00:00 13,2 11,5 - - 0,4
05.07.2020 03:00:00 14,5 14,0 - - 2,2
05.07.2020 02:00:00 14,8 14,4 - - 0,4
05.07.2020 01:00:00 15,2 14,7 - - 0,2
05.07.2020 00:00:00 15,3 15,1 - - 3,2
04.07.2020 23:00:00 14,9 14,7 - - 3,0
04.07.2020 22:00:00 14,2 13,9 - - 2,2
04.07.2020 21:00:00 14,2 13,8 - - 0,8
04.07.2020 20:00:00 14,3 13,9 - - 0,2
04.07.2020 19:00:00 14,3 13,3 - - 0,0
04.07.2020 18:00:00 15,2 13,1 - - 0,0
04.07.2020 17:00:00 16,4 13,2 - - 0,0
04.07.2020 16:00:00 16,3 12,9 - - 0,0
04.07.2020 15:00:00 15,8 12,6 - - 0,0
04.07.2020 14:00:00 16,1 12,7 - - 0,0
04.07.2020 13:00:00 15,1 13,0 - - 0,0
04.07.2020 12:00:00 14,2 12,8 - - 0,0
04.07.2020 11:00:00 13,7 13,0 - - 0,0
04.07.2020 10:00:00 13,3 13,0 15,5 13,7 0,0
04.07.2020 09:00:00 13,2 13,0 - - 0,0
04.07.2020 08:00:00 12,7 12,5 - - 0,0
04.07.2020 07:00:00 12,1 12,0 - - 0,0
04.07.2020 06:00:00 11,7 11,5 - - 0,2
04.07.2020 05:00:00 11,6 11,4 - - 0,6
04.07.2020 04:00:00 11,4 11,2 - - 1,2
04.07.2020 03:00:00 11,5 11,3 - - 2,4
04.07.2020 02:00:00 11,6 11,3 - - 0,6
04.07.2020 01:00:00 11,7 11,4 - - 1,0
04.07.2020 00:00:00 11,8 11,5 - - 0,2
03.07.2020 23:00:00 12,0 11,6 - - 0,2
03.07.2020 22:00:00 12,2 11,7 - - 0,2
03.07.2020 21:00:00 12,2 11,7 - - 0,2
03.07.2020 20:00:00 12,9 12,3 - - 0,2
03.07.2020 19:00:00 14,2 13,9 - - 0,6
03.07.2020 18:00:00 14,3 14,0 - - 0,6
03.07.2020 17:00:00 14,2 13,8 - - 0,2
03.07.2020 16:00:00 14,1 13,7 - - 0,4
03.07.2020 15:00:00 14,0 13,5 - - 0,0
03.07.2020 14:00:00 13,9 13,5 - - 1,8
03.07.2020 13:00:00 13,6 13,0 - - 0,6
03.07.2020 12:00:00 13,5 13,0 - - 0,6
03.07.2020 11:00:00 12,9 12,6 - - 2,2
03.07.2020 10:00:00 12,5 12,1 16,0 13,9 3,2
03.07.2020 09:00:00 12,1 11,7 - - 4,0
03.07.2020 08:00:00 11,9 11,5 - - 3,2
03.07.2020 07:00:00 11,4 11,0 - - 1,8
03.07.2020 06:00:00 11,2 10,7 - - 1,8
03.07.2020 05:00:00 10,7 10,1 - - 0,6
03.07.2020 04:00:00 11,1 10,5 - - 0,8
03.07.2020 03:00:00 11,5 10,5 - - 0,8
03.07.2020 02:00:00 11,4 10,0 - - 0,2
03.07.2020 01:00:00 11,6 9,4 - - 0,0
03.07.2020 00:00:00 11,9 9,2 - - 0,0
02.07.2020 23:00:00 12,5 9,5 - - 0,0
02.07.2020 22:00:00 12,9 9,5 - - 0,0
02.07.2020 21:00:00 13,4 10,4 - - 0,0
02.07.2020 20:00:00 15,1 10,7 - - 0,0
02.07.2020 19:00:00 14,9 10,3 - - 0,0
02.07.2020 18:00:00 15,1 10,8 - - 0,0
02.07.2020 17:00:00 14,7 10,8 - - 0,0
02.07.2020 16:00:00 17,2 9,8 - - 0,0
02.07.2020 15:00:00 16,3 7,6 - - 0,0
02.07.2020 14:00:00 16,8 6,5 - - 0,0
02.07.2020 13:00:00 15,9 7,1 - - 0,0
02.07.2020 12:00:00 15,1 9,1 - - 0,0
02.07.2020 11:00:00 14,4 8,3 - - 0,0
02.07.2020 10:00:00 13,9 8,8 15,7 13,9 0,0
02.07.2020 09:00:00 12,5 8,0 - - 0,0
02.07.2020 08:00:00 10,5 8,4 - - 0,0
02.07.2020 07:00:00 9,0 7,6 - - 0,0
02.07.2020 06:00:00 8,6 7,9 - - 0,0
02.07.2020 05:00:00 8,6 7,8 - - 0,0
02.07.2020 04:00:00 8,9 8,3 - - 0,0
02.07.2020 03:00:00 9,0 8,5 - - 0,0
02.07.2020 02:00:00 9,2 8,6 - - 0,0
02.07.2020 01:00:00 9,6 9,0 - - 0,0
02.07.2020 00:00:00 10,1 9,5 - - 0,0
01.07.2020 23:00:00 10,4 9,8 - - 0,0
01.07.2020 22:00:00 11,3 10,7 - - 0,0
01.07.2020 21:00:00 12,3 11,9 - - 0,2
01.07.2020 20:00:00 12,7 12,3 - - 0,0
01.07.2020 19:00:00 13,0 12,5 - - 1,2
01.07.2020 18:00:00 13,7 13,0 - - 2,2
01.07.2020 17:00:00 14,3 13,6 - - 1,4
01.07.2020 16:00:00 14,4 13,3 - - 1,0
01.07.2020 15:00:00 15,3 14,3 - - 0,2
01.07.2020 14:00:00 15,1 13,7 - - 0,0
01.07.2020 13:00:00 15,2 14,0 - - 0,8
01.07.2020 12:00:00 14,8 12,5 - - 1,2
01.07.2020 11:00:00 15,6 12,4 - - 0,0
01.07.2020 10:00:00 14,4 12,5 15,9 13,9 0,0

tt = Température de l'air
td = dewpoint
tt -20cm = Température de l'air -20cm
tt -100cm = Température de l'air -100cm
rr = Quantités de précipitations

stations d'obs. à proximité